Date,TemperatureHighF,TemperatureAvgF,TemperatureLowF,DewpointHighF,DewpointAvgF,DewpointLowF,HumidityHigh,HumidityAvg,HumidityLow,PressureMaxIn,PressureMinIn,WindSpeedMaxMPH,WindSpeedAvgMPH,GustSpeedMaxMPH,PrecipitationSumIn
2013-1-1,36.9,31.2,24.3,36.6,30.9,24.1,99,99,99,28.79,28.59,10,5,10,0.01
2013-1-2,35.8,26.7,20.8,26.6,22.5,19.4,99,85,56,28.81,28.73,7,2,7,0.00
2013-1-3,43.0,29.6,19.2,31.4,24.7,18.0,99,84,54,28.97,28.80,8,1,8,0.00
2013-1-4,47.5,33.9,20.5,27.9,24.6,19.3,99,72,41,29.14,28.88,9,3,9,0.00
2013-1-5,42.6,36.8,30.0,34.7,30.5,23.0,93,78,69,28.88,28.73,13,5,13,0.00
2013-1-6,45.7,33.1,24.1,32.1,25.2,19.7,99,76,41,29.14,28.78,10,3,10,0.00
2013-1-7,53.1,35.6,20.8,31.2,24.9,18.8,96,69,38,28.90,28.67,13,3,13,0.00
2013-1-8,59.9,42.1,25.5,46.8,35.5,22.1,99,79,53,28.77,28.60,13,3,13,0.32
2013-1-9,53.8,49.1,45.7,48.1,44.6,39.1,99,85,64,29.13,28.76,16,4,16,0.06
2013-1-10,57.7,49.9,44.8,55.8,48.3,41.1,99,94,73,28.77,28.39,12,5,12,0.08
2013-1-11,66.4,54.8,42.6,48.3,46.3,42.3,99,75,48,28.46,28.32,20,8,20,0.00
2013-1-12,57.4,43.0,28.8,52.3,38.5,28.6,99,86,52,28.52,28.35,15,8,15,0.35
2013-1-13,28.8,22.6,14.4,28.4,20.8,12.7,99,93,82,28.88,28.51,14,6,14,0.00
2013-1-14,34.7,21.7,11.8,19.5,15.5,9.4,99,79,49,29.13,28.86,10,3,10,0.00
2013-1-15,35.8,24.7,16.2,23.7,18.5,14.5,96,79,50,28.86,28.70,8,3,8,0.00
2013-1-16,43.0,28.6,14.4,23.1,19.0,12.8,99,71,41,28.75,28.65,7,2,7,0.00
2013-1-17,76.0,34.2,24.3,65.1,26.5,18.3,92,74,53,29.03,28.73,13,3,13,0.00
2013-1-18,57.6,39.3,22.3,32.9,27.6,21.3,99,68,34,29.05,28.76,15,5,15,0.00
2013-1-19,63.5,49.3,38.5,38.6,34.0,27.1,83,57,39,28.76,28.63,15,6,15,0.00
2013-1-20,62.1,43.6,28.8,37.1,30.1,19.8,90,62,37,28.82,28.68,13,3,13,0.00
2013-1-21,38.8,28.0,20.8,21.2,16.9,14.3,77,64,42,28.93,28.82,13,5,13,0.00
2013-1-22,48.6,32.0,18.1,28.2,21.4,14.4,93,67,44,28.86,28.75,10,2,10,0.00
2013-1-23,61.3,42.0,23.9,45.5,34.7,21.2,97,77,55,28.81,28.70,10,2,10,0.00
2013-1-24,42.9,37.6,32.5,34.0,23.7,17.9,88,57,44,28.87,28.66,11,5,11,0.00
2013-1-25,51.1,37.6,29.7,36.0,31.6,29.2,99,81,53,28.81,28.67,8,2,8,0.00
2013-1-26,63.0,45.4,30.6,32.0,27.1,22.4,91,54,23,28.82,28.69,9,3,9,0.00
2013-1-27,59.4,53.4,45.3,56.5,48.7,32.0,94,85,58,28.69,28.50,22,8,22,0.00
2013-1-28,72.7,66.1,58.1,63.4,61.6,56.4,95,86,72,28.55,28.41,20,11,20,0.00
2013-1-29,68.5,59.7,46.4,64.7,57.6,46.1,99,93,84,28.41,28.06,21,8,21,1.79
2013-1-30,46.4,46.4,46.4,46.1,46.1,46.1,99,99,99,28.09,28.09,2,2,2,0.00
2013-1-31,46.4,46.4,46.4,46.1,46.1,46.1,99,99,99,28.09,28.09,2,2,2,0.00
2013-2-1,46.4,46.4,46.4,46.1,46.1,46.1,99,99,99,28.09,28.09,2,2,2,0.00
2013-2-2,53.8,46.1,38.7,46.1,40.0,30.7,99,82,44,28.77,28.09,10,3,10,0.01
2013-2-3,55.9,43.4,34.5,31.5,27.6,22.3,77,56,31,28.84,28.54,9,4,9,0.00
2013-2-4,61.7,48.8,36.3,48.1,38.4,27.9,90,68,47,28.54,28.40,17,5,18,0.29
2013-2-5,65.8,45.5,28.8,51.6,35.4,28.6,99,73,33,28.63,28.49,9,2,9,0.00
2013-2-6,39.0,37.3,34.7,34.4,33.4,31.9,91,86,83,28.66,28.62,5,0,5,0.00
2013-2-7,37.6,37.6,37.6,33.5,33.5,33.5,85,85,85,28.66,28.66,0,0,0,0.00
2013-2-8,37.6,37.6,37.6,33.5,33.5,33.5,85,85,85,28.66,28.66,0,0,0,0.00
2013-2-9,50.7,40.9,37.6,42.1,35.7,30.4,99,83,51,28.66,28.41,10,2,10,0.16
2013-2-10,61.2,51.8,40.8,54.4,39.9,27.9,99,69,33,28.60,28.22,19,7,19,0.41
2013-2-11,41.2,39.8,31.8,28.4,27.8,23.9,81,62,51,28.71,28.60,5,4,5,0.00
2013-2-12,33.6,29.2,28.6,28.7,25.9,25.4,91,87,77,28.70,28.63,3,1,3,0.00
2013-2-13,28.8,28.8,28.8,25.7,25.7,25.7,88,88,88,28.63,28.63,2,2,2,0.00
2013-2-14,28.8,28.8,28.8,25.7,25.7,25.7,88,88,88,28.63,28.63,2,2,2,0.00
2013-2-15,28.8,28.8,28.8,25.7,25.7,25.7,88,88,88,28.63,28.63,2,2,2,0.00
2013-2-16,28.8,28.8,28.8,25.7,25.7,25.7,88,88,88,28.63,28.63,2,2,2,0.00
2013-2-17,62.4,39.4,28.8,58.8,27.8,25.7,88,71,32,28.63,28.45,13,4,13,0.00
2013-2-18,62.4,57.4,33.6,34.7,31.8,14.3,78,41,32,28.66,28.45,17,9,17,0.00
2013-2-19,46.8,35.3,24.4,27.2,21.8,17.2,79,59,42,28.86,28.66,15,4,15,0.00
2013-2-20,35.6,31.0,26.1,31.5,23.1,14.2,93,73,53,28.85,28.63,8,3,8,0.10
2013-2-21,31.5,31.5,31.5,26.0,26.0,26.0,80,80,80,28.64,28.64,3,3,3,0.00
2013-2-22,31.5,31.5,31.5,26.0,26.0,26.0,80,80,80,28.64,28.64,3,3,3,0.00
2013-2-23,31.5,31.5,31.5,26.0,26.0,26.0,80,80,80,28.64,28.64,3,3,3,0.00
2013-2-24,59.9,36.9,31.5,35.3,28.4,26.0,80,73,40,28.64,28.40,9,3,9,0.03
2013-2-25,40.1,40.1,40.1,32.5,32.5,32.5,74,74,74,28.43,28.43,5,5,5,0.00
2013-2-26,40.1,40.1,40.1,32.5,32.5,32.5,74,74,74,28.43,28.43,5,5,5,0.00
2013-2-27,40.1,40.1,40.1,32.5,32.5,32.5,74,74,74,28.43,28.43,5,5,5,0.00
2013-2-28,40.1,40.1,40.1,32.5,32.5,32.5,74,74,74,28.43,28.43,5,5,5,0.00
2013-3-1,40.1,32.4,29.7,32.5,27.3,25.5,84,81,74,28.73,28.43,5,2,5,0.00
2013-3-2,33.6,30.4,23.7,25.5,23.5,18.3,88,76,60,28.86,28.73,10,3,10,0.00
2013-3-3,53.1,40.9,23.0,29.1,26.3,19.9,93,60,40,28.74,28.60,12,5,12,0.00
2013-3-4,51.6,51.6,51.6,28.6,28.6,28.6,41,41,41,28.60,28.60,9,9,9,0.00
2013-3-5,51.6,51.6,51.6,28.6,28.6,28.6,41,41,41,28.60,28.60,9,9,9,0.00
2013-3-6,51.6,51.6,51.6,28.6,28.6,28.6,41,41,41,28.60,28.60,9,9,9,0.00
2013-3-7,52.5,50.7,45.3,32.8,29.3,28.6,61,44,41,28.75,28.60,9,8,9,0.00
2013-3-8,45.9,45.9,45.9,32.8,32.8,32.8,60,60,60,28.75,28.75,2,2,2,0.00
2013-3-9,57.9,47.6,45.9,57.6,36.3,32.8,99,66,60,28.75,28.25,10,2,10,1.14
2013-3-10,55.8,46.3,29.7,55.3,46.0,29.2,99,99,96,28.51,28.24,13,6,13,0.30
2013-3-11,36.0,29.9,29.5,29.3,28.8,22.4,99,96,59,28.59,28.51,5,4,5,0.00
2013-3-12,42.6,31.3,31.3,24.9,24.9,23.8,77,77,47,28.59,28.59,8,0,0,0.00
2013-3-14,56.5,51.6,55.2,48.1,32.7,-99.9,77,59,61,30.16,28.68,4,-75,0,0.00
2013-3-15,80.6,65.0,47.7,50.3,47.0,43.4,86,55,31,30.14,29.81,13,6,0,0.01
2013-3-16,77.4,62.9,50.4,55.4,48.0,41.7,77,59,44,29.88,29.78,11,5,0,0.00
2013-3-17,49.6,43.5,40.3,43.3,41.5,39.2,99,93,73,29.91,29.71,9,3,0,0.24
2013-3-18,54.7,44.1,36.9,44.7,37.4,28.8,99,79,47,30.09,28.57,9,3,0,0.02
2013-3-19,59.4,43.5,31.1,31.5,27.7,22.4,92,58,26,28.81,28.58,15,3,15,0.00
2013-3-20,49.5,37.3,28.0,32.5,24.4,16.6,97,64,34,30.35,28.67,16,4,16,0.00
2013-3-21,33.8,31.1,30.0,33.5,23.2,19.3,99,73,63,30.08,28.38,9,3,9,0.35
2013-3-22,40.5,36.1,32.0,39.8,35.9,31.8,99,99,97,29.91,28.39,8,3,8,0.80
2013-3-23,41.4,37.9,35.6,40.9,37.6,35.3,99,99,99,29.88,28.27,8,3,8,0.06
2013-3-24,40.1,32.6,26.2,39.8,31.4,23.1,99,95,82,30.11,28.20,17,6,17,0.33
2013-3-25,34.3,28.1,23.0,27.1,23.7,20.4,94,84,68,30.29,28.64,13,4,13,0.00
2013-3-26,47.5,32.3,21.0,28.9,23.9,20.8,99,74,42,30.37,28.84,11,2,11,0.00
2013-3-27,61.2,43.2,23.9,34.3,27.8,22.0,95,61,27,30.26,28.69,12,3,12,0.00
2013-3-28,72.0,56.6,43.3,51.1,42.5,30.9,77,60,48,30.14,28.68,15,4,15,0.00
2013-3-29,71.4,58.8,50.9,59.5,54.1,48.6,99,85,62,30.12,28.66,8,2,8,0.91
2013-3-30,71.6,59.3,52.2,60.8,56.1,51.9,99,90,67,30.03,28.46,11,3,11,1.77
2013-3-31,69.3,57.1,48.0,56.4,48.5,40.7,99,77,38,28.56,28.43,20,3,20,0.06
2013-4-1,63.9,48.1,38.5,47.5,41.7,33.9,99,80,51,30.09,28.54,13,5,13,0.01
2013-4-2,42.3,37.4,35.4,38.2,36.2,33.5,99,96,72,30.16,28.73,10,5,10,1.49
2013-4-3,52.3,42.9,35.4,40.6,31.1,26.5,96,65,43,30.14,28.71,14,4,14,0.43
2013-4-4,57.7,46.4,39.0,41.4,37.8,33.0,98,74,45,30.05,28.62,10,3,10,0.35
2013-4-5,41.4,32.5,31.5,34.6,30.5,29.8,96,92,77,30.04,28.69,0,0,0,0.00
2013-4-6,31.5,31.5,31.5,30.0,30.0,29.9,94,94,94,30.04,28.71,0,0,0,0.00
2013-4-7,78.1,47.1,31.5,72.5,42.0,29.9,94,84,54,30.03,28.33,18,3,18,0.00
2013-4-8,72.9,65.2,59.5,65.3,60.6,56.3,99,85,75,29.70,28.30,16,6,16,0.49
2013-4-9,82.2,70.9,63.3,68.6,63.1,58.6,88,77,62,29.69,28.29,14,7,14,0.00
2013-4-10,73.2,47.4,36.3,67.1,46.2,36.0,99,96,77,29.79,28.31,15,4,15,1.84
2013-4-11,36.5,35.3,33.1,36.0,33.8,32.9,99,94,91,29.79,28.37,9,4,9,0.01
2013-4-12,36.1,36.1,36.1,33.7,33.7,33.7,91,91,91,29.75,28.41,5,5,5,0.00
2013-4-13,71.1,47.9,36.1,61.9,40.3,33.7,91,78,49,29.89,28.37,15,5,15,0.02
2013-4-14,80.6,67.0,52.2,56.5,51.3,47.2,83,59,38,29.72,28.13,21,8,21,0.00
2013-4-15,80.2,67.6,55.9,69.3,60.9,53.0,93,80,66,29.76,28.25,15,6,15,0.00
2013-4-16,81.5,61.8,51.1,68.9,58.4,50.8,99,90,62,29.91,28.40,10,4,10,0.00
2013-4-17,83.7,71.0,55.6,73.3,65.3,55.3,99,84,65,29.88,28.22,20,7,20,0.00
2013-4-18,74.7,48.6,37.4,69.0,46.4,31.5,99,92,79,29.91,28.14,15,6,18,8.43
2013-4-19,56.5,43.7,32.5,35.1,31.2,26.8,87,64,37,30.02,28.55,11,4,11,0.00
2013-4-20,71.4,52.0,32.9,42.8,37.5,31.5,99,62,31,30.12,28.65,10,2,10,0.00
2013-4-21,71.4,57.7,46.4,47.5,42.5,38.2,83,59,34,30.20,28.68,13,4,13,0.00
2013-4-22,75.0,59.0,42.4,51.0,44.4,38.3,92,61,39,30.12,28.48,13,4,13,0.00
2013-4-23,61.0,49.5,35.8,57.0,46.4,35.5,99,90,69,30.03,28.39,10,5,10,0.19
2013-4-24,58.5,43.3,33.6,38.7,33.8,27.8,99,73,39,30.24,28.67,12,4,12,0.00
2013-4-25,73.0,52.9,29.1,42.5,34.6,23.3,99,57,25,30.29,28.77,10,2,10,0.00
2013-4-26,56.8,50.7,47.1,50.9,47.7,38.3,99,91,51,30.26,28.67,14,5,14,2.31
2013-4-27,57.7,55.6,50.4,57.5,55.3,50.1,99,99,99,30.05,28.52,12,2,12,1.95
2013-4-28,57.7,57.7,57.7,57.5,57.4,57.4,99,99,99,29.95,28.59,2,2,2,0.00
2013-4-29,57.7,57.7,57.7,57.5,57.4,57.4,99,99,99,29.95,28.59,2,2,2,0.00
2013-4-30,57.7,57.7,57.7,57.5,57.4,57.4,99,99,99,29.95,28.59,2,2,2,0.00
2013-5-1,57.7,57.7,57.7,57.4,57.4,57.4,99,99,99,29.95,28.59,2,2,2,0.00
2013-5-2,57.7,54.1,39.6,57.4,53.8,39.3,99,99,99,30.16,28.59,6,3,6,0.00
2013-5-3,39.6,39.6,39.6,39.3,39.3,39.3,99,99,99,30.16,28.79,6,6,6,0.00
2013-5-4,45.0,40.5,35.6,42.3,39.4,35.3,99,96,86,30.16,28.41,8,4,8,0.07
2013-5-5,62.2,48.7,35.1,51.5,44.3,34.6,99,86,65,30.01,28.56,10,4,11,0.01
2013-5-6,54.7,54.7,54.7,50.0,50.0,49.9,84,84,84,29.96,28.60,4,4,4,0.00
2013-5-7,54.7,54.7,54.7,50.0,50.0,49.9,84,84,84,29.96,28.60,4,4,4,0.00
2013-5-8,54.7,54.7,54.7,50.0,50.0,49.9,84,84,84,29.96,28.60,4,3,4,0.00
2013-5-9,60.6,55.5,54.7,60.3,51.3,49.9,99,86,84,29.96,28.52,4,3,4,0.00
2013-5-10,60.6,60.6,60.6,60.3,60.3,60.3,99,99,99,29.88,28.52,3,2,3,0.00
2013-5-11,60.6,60.6,60.6,60.3,60.3,60.3,99,99,99,29.88,28.52,3,3,3,0.00
2013-5-12,70.7,59.7,48.6,60.3,49.7,35.9,99,74,33,30.21,28.52,9,2,9,0.00
2013-5-13,82.8,65.2,45.7,59.4,51.6,45.0,99,66,38,30.10,28.62,14,4,14,0.00
2013-5-14,89.6,75.1,63.1,62.4,55.8,51.1,67,53,30,30.01,28.54,17,7,17,0.00
2013-5-15,77.7,68.8,64.0,68.2,61.6,52.0,99,79,57,29.94,28.45,16,6,16,0.78
2013-5-16,71.6,64.9,60.3,67.1,63.5,60.0,99,95,84,29.80,28.40,7,2,7,0.02
2013-5-17,85.3,70.3,56.1,69.3,64.2,55.8,99,83,55,29.87,28.44,7,1,7,0.00
2013-5-18,86.7,75.2,63.5,77.5,71.0,63.2,99,87,70,29.87,28.38,14,4,14,0.00
2013-5-19,90.0,79.3,71.4,71.9,68.5,63.7,98,72,47,29.78,28.24,22,8,22,0.09
2013-5-20,80.1,70.3,60.6,72.9,66.6,60.3,99,89,77,29.76,28.29,31,5,31,0.86
2013-5-21,64.0,60.7,58.1,62.5,60.2,57.8,99,98,94,28.50,28.15,17,5,17,1.13
2013-5-22,77.9,65.0,53.8,64.7,58.6,53.5,99,82,56,29.87,28.37,13,3,13,0.01
2013-5-23,76.3,64.4,53.2,64.8,59.4,52.9,99,85,65,30.09,28.52,8,3,8,0.00
2013-5-24,80.6,66.7,55.8,66.5,58.8,54.1,95,77,59,30.22,28.72,10,4,11,0.00
2013-5-25,86.0,71.5,57.0,70.0,61.3,51.9,85,71,57,30.17,28.64,12,4,12,0.00
2013-5-26,84.7,74.0,63.0,71.2,65.6,60.8,99,76,57,28.70,28.56,15,6,15,0.00
2013-5-27,85.3,75.7,67.6,71.5,67.4,60.9,95,77,56,29.95,28.40,20,8,20,0.00
2013-5-28,85.8,76.3,71.8,69.5,66.6,63.9,85,73,58,29.83,28.36,21,10,21,0.01
2013-5-29,73.9,73.4,73.2,66.6,65.7,65.5,79,77,75,29.82,28.37,12,5,12,0.00
2013-5-30,82.6,70.6,61.9,71.7,66.1,61.6,99,86,67,29.81,28.31,28,8,28,1.98
2013-5-31,86.7,75.7,61.5,75.8,70.6,61.2,99,85,69,29.75,28.24,20,7,20,0.01
2013-6-1,79.2,69.1,58.6,73.2,64.8,56.0,99,87,68,29.93,28.26,24,4,24,1.33
2013-6-2,70.9,60.7,52.5,61.6,56.8,52.2,99,88,71,29.99,28.56,7,2,7,0.00
2013-6-3,82.9,65.3,46.0,64.8,57.0,16.3,99,77,46,29.99,28.48,7,2,7,0.00
2013-6-4,80.8,68.4,61.3,70.0,62.9,58.4,93,83,67,29.93,28.48,9,3,9,0.00
2013-6-5,81.0,69.1,60.8,70.7,64.8,59.9,99,87,66,29.95,28.44,9,3,9,1.41
2013-6-6,74.1,65.9,57.7,67.2,61.7,56.0,99,87,71,28.53,28.47,9,3,9,0.00
2013-6-7,79.2,64.9,52.2,62.8,56.7,51.7,99,77,49,29.93,28.48,9,2,9,0.23
2013-6-8,84.6,68.8,50.5,64.3,57.8,50.0,99,71,48,29.90,28.43,10,2,10,0.00
2013-6-9,86.2,73.8,64.2,69.2,62.4,58.7,93,69,46,29.85,28.42,9,3,9,0.07
2013-6-10,92.7,79.7,67.3,73.2,66.5,58.8,81,65,40,29.87,28.44,15,5,15,0.00
2013-6-11,94.5,83.6,72.3,72.8,68.9,64.2,81,63,40,29.96,28.50,14,6,14,0.00
2013-6-12,92.7,83.0,74.5,72.7,70.7,69.0,84,68,50,29.94,28.49,18,9,18,0.00
2013-6-13,91.2,80.5,71.1,74.1,70.0,65.7,90,72,49,29.97,28.53,8,3,8,0.00
2013-6-14,95.9,80.9,67.8,79.9,71.5,65.0,93,74,54,29.98,28.51,9,3,9,0.00
2013-6-15,93.6,78.3,69.3,76.7,69.5,64.7,97,76,58,29.99,28.53,12,4,12,0.59
2013-6-16,91.8,77.9,69.3,75.2,70.3,12.9,98,79,58,29.95,28.49,13,4,13,0.20
2013-6-17,73.6,69.1,65.5,70.5,67.3,64.0,99,94,82,29.92,28.46,7,3,7,0.82
2013-6-18,90.3,74.0,62.2,72.7,66.3,61.9,99,79,47,29.98,28.53,7,2,7,0.00
2013-6-19,90.7,76.1,61.0,72.5,65.2,59.4,99,72,46,30.00,28.55,10,2,10,0.00
2013-6-20,92.1,79.0,64.2,73.6,68.6,61.9,95,72,54,30.02,28.57,12,4,12,0.00
2013-6-21,93.6,83.2,73.2,75.6,71.7,69.1,88,70,52,28.67,28.59,13,6,13,0.00
2013-6-22,91.8,82.1,73.4,74.7,70.5,54.7,85,69,51,30.02,28.53,12,5,12,0.00
2013-6-23,93.6,81.5,70.2,75.0,70.3,66.6,94,71,50,29.95,28.50,15,6,15,0.00
2013-6-24,92.5,82.0,73.8,73.8,69.7,66.6,81,67,50,29.99,28.53,15,6,15,0.00
2013-6-25,90.9,82.0,75.6,71.9,69.4,67.7,80,67,50,29.93,28.43,16,8,16,0.00
2013-6-26,95.7,83.4,76.3,76.9,72.3,68.2,88,70,55,29.87,28.42,14,6,14,0.12
2013-6-27,99.7,86.7,71.6,77.8,73.8,69.5,94,68,44,29.93,28.46,8,3,8,0.00
2013-6-28,92.3,82.8,72.0,74.4,69.4,60.0,84,65,45,28.54,28.43,8,4,8,0.00
2013-6-29,88.2,75.6,62.4,64.5,57.8,53.7,80,56,36,29.78,28.39,13,4,13,0.13
2013-6-30,80.4,69.5,59.9,63.6,59.4,54.2,89,71,55,29.91,28.43,12,4,12,0.00
2013-7-1,82.8,69.9,58.5,63.7,56.5,47.4,93,66,35,29.99,28.55,10,4,10,0.00
2013-7-2,82.8,68.7,53.6,61.0,54.1,50.6,93,63,35,30.03,28.60,11,3,11,0.00
2013-7-3,89.6,70.8,53.4,59.0,53.4,49.1,92,59,28,30.06,28.58,7,2,7,0.00
2013-7-4,89.1,73.1,56.8,63.0,57.3,52.5,89,61,32,28.65,28.55,8,2,8,0.00
2013-7-5,92.7,76.9,59.0,63.8,58.9,54.4,89,57,33,29.99,28.52,10,2,10,0.00
2013-7-6,92.8,78.0,64.8,65.4,60.9,57.3,82,58,36,29.98,28.53,8,2,8,0.00
2013-7-7,94.5,80.9,67.8,70.4,64.8,59.0,86,60,34,30.00,28.57,10,3,10,0.00
2013-7-8,95.7,82.7,69.4,72.3,67.4,63.7,82,62,42,30.04,28.61,11,3,11,0.00
2013-7-9,97.3,85.5,74.5,73.0,69.7,67.5,79,61,42,30.04,28.56,13,6,13,0.00
2013-7-10,101.5,87.0,73.9,73.0,69.3,65.3,78,57,38,29.98,28.49,12,3,12,0.00
2013-7-11,97.5,83.6,71.1,76.9,68.6,60.9,86,63,37,29.92,28.51,7,2,7,0.00
2013-7-12,96.8,81.1,68.7,73.0,64.8,59.1,78,59,41,30.00,28.55,8,2,8,0.00
2013-7-13,91.6,77.7,61.9,65.9,59.9,54.8,82,56,39,30.01,28.55,8,2,8,0.00
2013-7-14,92.3,78.3,62.8,64.2,59.3,54.5,82,55,30,30.01,28.56,9,3,9,0.00
2013-7-15,94.5,79.5,68.9,70.3,65.6,61.5,82,65,39,30.12,28.63,13,3,13,0.00
2013-7-16,92.8,77.9,68.4,74.7,68.9,64.5,89,75,52,30.22,28.75,11,2,11,0.00
2013-7-17,97.5,81.7,67.1,73.8,67.8,63.4,98,67,36,30.27,28.77,10,2,10,0.00
2013-7-18,97.5,83.0,67.6,71.6,67.5,64.1,92,63,40,30.17,28.62,7,2,7,0.00
2013-7-19,97.7,82.4,72.0,74.0,68.2,64.8,79,63,41,28.64,28.52,9,3,9,0.00
2013-7-20,97.3,80.0,68.9,74.5,68.8,65.2,91,71,43,29.92,28.42,11,4,11,0.66
2013-7-21,84.4,74.8,68.4,76.6,70.9,66.1,96,88,73,29.91,28.43,9,2,9,0.76
2013-7-22,90.0,75.7,65.8,73.8,68.5,62.9,98,80,56,29.94,28.43,13,4,13,2.37
2013-7-23,98.8,85.3,68.9,78.6,73.0,64.7,95,68,50,29.87,28.39,12,4,12,1.16
2013-7-24,88.0,75.6,66.7,73.6,69.6,65.6,99,83,61,30.16,28.46,18,4,18,2.88
2013-7-25,89.6,76.6,64.6,73.4,68.6,62.5,96,78,54,30.04,28.60,6,1,6,0.00
2013-7-26,74.1,71.3,64.6,71.7,68.2,63.4,97,90,80,29.96,28.57,7,2,7,0.98
2013-7-27,82.9,71.5,63.0,69.3,64.0,57.9,99,79,53,30.00,28.55,6,2,6,0.01
2013-7-28,83.3,69.8,61.5,69.9,62.7,57.3,90,79,59,29.99,28.57,8,2,8,0.00
2013-7-29,88.9,77.3,67.3,74.2,68.9,62.4,89,76,60,30.01,28.56,13,4,13,0.00
2013-7-30,89.1,78.8,70.0,75.3,72.2,68.4,98,81,63,30.00,28.57,10,3,10,3.62
2013-7-31,90.0,80.3,71.6,77.6,72.9,67.0,96,79,64,30.02,28.58,8,2,8,0.00
2013-8-1,91.9,77.4,64.6,73.3,68.0,63.4,97,75,48,30.03,28.56,6,1,6,0.00
2013-8-2,90.0,79.2,71.1,76.6,71.4,65.8,88,77,65,29.94,28.47,12,4,12,0.00
2013-8-3,89.1,78.1,67.5,77.6,72.2,66.6,97,83,63,30.04,28.49,10,3,11,8.39
2013-8-4,77.5,74.2,72.0,73.9,71.5,68.6,96,91,82,30.08,28.59,7,2,7,0.47
2013-8-5,95.0,81.3,71.6,79.3,74.0,68.2,95,80,59,29.98,28.44,12,4,12,0.07
2013-8-6,96.6,83.1,72.5,81.5,73.9,67.6,91,75,58,29.86,28.40,9,4,9,0.24
2013-8-7,92.3,81.4,73.8,80.3,73.8,69.8,91,78,58,29.78,28.42,9,3,9,0.08
2013-8-8,85.5,74.9,67.3,76.4,70.8,66.4,99,88,68,29.94,28.44,14,3,14,9.50
2013-8-9,85.8,75.8,70.0,74.7,70.3,67.7,97,84,67,29.99,28.50,10,2,10,0.19
2013-8-10,87.3,76.5,69.4,75.3,70.2,67.5,95,82,62,30.04,28.62,8,3,8,0.00
2013-8-11,91.4,77.9,69.3,77.3,71.5,66.3,95,81,60,30.04,28.60,6,1,6,0.00
2013-8-12,86.4,76.2,70.7,77.0,71.1,68.0,97,85,67,30.02,28.55,9,1,9,0.00
2013-8-13,79.9,72.7,65.8,73.6,69.7,20.8,96,90,78,30.01,28.56,6,1,6,0.33
2013-8-14,82.2,69.7,59.2,67.3,61.9,55.0,96,78,50,30.09,28.64,9,2,9,0.00
2013-8-15,82.0,66.4,53.8,62.3,57.1,51.8,95,74,45,30.08,28.60,8,1,8,0.00
2013-8-16,81.7,68.0,59.9,64.6,58.8,54.9,87,73,54,30.07,28.61,7,1,7,0.00
2013-8-17,83.5,68.4,54.1,65.5,59.9,51.8,96,76,53,30.10,28.64,7,1,7,0.00
2013-8-18,73.9,73.9,73.9,63.1,63.1,63.1,69,69,69,30.00,28.64,0,0,0,0.00
2013-8-19,73.9,73.9,73.9,63.1,63.1,63.1,69,69,69,30.00,28.64,0,0,0,0.00
2013-8-20,73.9,73.9,73.9,63.1,63.1,63.1,69,69,69,30.00,28.64,0,0,0,0.00
2013-8-21,73.9,73.9,73.9,63.1,63.1,63.1,69,69,69,30.00,28.64,0,0,0,0.00
2013-8-22,73.9,73.9,73.9,63.1,63.1,63.1,69,69,69,30.00,28.64,0,0,0,0.00
2013-8-23,73.9,73.9,73.9,63.1,63.1,63.1,69,69,69,30.00,28.64,0,0,0,0.00
2013-8-24,88.7,79.7,73.9,73.5,67.2,63.1,69,66,61,30.07,28.64,1,0,1,0.00
2013-8-25,88.7,88.7,88.7,73.5,73.5,73.5,61,61,61,30.07,28.70,1,1,1,0.00
2013-8-26,88.7,88.7,88.7,73.5,73.5,73.5,61,61,61,28.70,28.70,1,1,1,0.00
2013-8-27,88.7,88.7,88.7,73.5,73.5,73.5,61,61,61,30.07,28.70,1,1,1,0.00
2013-8-28,88.7,88.7,88.7,73.5,73.5,73.5,61,61,61,30.07,28.70,1,1,1,0.00
2013-8-29,88.7,88.7,88.7,73.5,73.5,73.5,61,61,61,28.70,28.70,1,1,1,0.00
2013-8-30,88.7,88.7,88.7,73.5,73.5,73.5,61,61,61,30.07,28.70,1,1,1,0.00
2013-8-31,88.7,88.7,88.7,73.5,73.5,73.5,61,61,61,30.07,28.70,1,1,1,0.00
2013-9-1,92.7,84.4,72.5,73.5,71.6,67.6,86,67,49,30.07,28.40,10,2,10,0.09
2013-9-2,87.1,75.3,64.9,70.9,66.0,59.3,96,75,50,29.95,28.49,7,2,7,0.00
2013-9-3,91.0,72.4,57.4,68.4,60.9,55.4,97,71,39,29.93,28.57,6,1,6,0.00
2013-9-4,91.6,72.7,57.2,67.9,61.0,55.6,97,70,39,30.11,28.63,6,1,6,0.00
2013-9-5,90.7,73.5,58.6,68.0,61.6,32.1,93,70,41,30.14,28.68,6,1,6,0.00
2013-9-6,93.0,74.7,59.2,69.4,62.6,56.6,94,69,41,30.05,28.60,6,1,6,0.00
2013-9-7,97.7,79.2,64.9,69.8,65.2,60.1,92,66,36,30.01,28.53,8,2,8,0.00
2013-9-8,97.3,81.7,66.9,70.0,66.0,61.9,85,62,38,28.57,28.48,9,2,9,0.00
2013-9-9,97.7,82.3,67.8,68.3,64.7,61.3,80,58,33,29.97,28.52,13,3,13,0.00
2013-9-10,97.3,80.1,65.1,70.5,63.4,57.5,84,60,29,30.09,28.59,11,2,11,0.00
2013-9-11,93.4,79.1,66.7,72.6,67.1,63.2,92,69,43,30.11,28.63,6,1,6,0.00
2013-9-12,94.3,78.1,66.6,73.6,68.0,63.9,96,73,47,30.06,28.58,7,2,7,0.00
2013-9-13,85.1,71.9,56.5,65.5,56.2,49.5,80,60,36,30.04,28.57,8,3,8,0.01
2013-9-14,84.9,66.0,50.2,58.0,52.3,47.4,96,65,34,30.03,28.56,9,1,9,0.00
2013-9-15,90.9,74.4,58.8,65.9,57.9,50.2,79,58,39,30.00,28.58,10,3,10,0.00
2013-9-16,78.6,71.6,67.3,70.2,65.3,60.6,92,81,69,30.14,28.63,6,1,6,0.32
2013-9-17,85.1,74.0,66.6,70.1,66.5,63.6,90,78,59,30.07,28.59,7,2,7,0.00
2013-9-18,90.7,78.4,68.9,71.2,66.5,51.2,85,68,48,29.98,28.52,10,4,10,0.00
2013-9-19,93.4,79.1,69.6,70.0,66.8,62.7,91,68,44,29.95,28.46,14,4,14,0.55
2013-9-20,72.1,65.8,55.8,69.3,62.8,52.0,99,90,70,29.93,28.50,9,2,9,5.89
2013-9-21,77.0,60.5,46.0,58.1,50.3,44.4,98,73,40,29.95,28.50,7,2,7,0.00
2013-9-22,80.4,61.2,45.0,55.7,49.4,43.4,98,70,35,29.83,28.45,6,1,6,0.00
2013-9-23,83.1,64.6,48.6,58.4,52.3,45.0,95,68,38,29.86,28.39,10,2,10,0.00
2013-9-24,80.6,68.0,57.9,61.3,56.5,52.6,83,68,50,28.47,28.42,7,2,7,0.00
2013-9-25,83.1,66.9,53.4,64.2,58.1,50.6,96,75,50,29.83,28.40,5,1,5,0.00
2013-9-26,89.1,70.9,56.5,65.2,59.6,54.4,94,71,40,29.90,28.44,7,2,7,0.00
2013-9-27,88.0,72.8,60.4,66.3,60.5,56.6,90,68,43,29.95,28.50,11,3,11,0.00
2013-9-28,83.1,69.8,61.3,68.5,65.0,59.2,98,86,60,29.90,28.50,15,4,15,1.58
2013-9-29,61.3,61.3,61.3,60.8,60.7,60.7,98,98,98,29.98,28.62,2,2,2,0.00
2013-9-30,61.3,61.3,61.3,60.8,60.7,60.7,98,98,98,29.98,28.62,2,2,2,0.00
2013-10-1,61.3,61.3,61.3,60.7,60.7,60.7,98,98,98,29.98,28.62,2,2,2,0.00
2013-10-2,61.3,61.3,61.3,60.7,60.7,60.7,98,98,98,29.98,28.62,2,2,2,0.00
2013-10-3,61.3,61.3,61.3,60.8,60.7,60.7,98,98,98,29.98,28.62,2,2,2,0.00
2013-10-4,61.3,61.3,61.3,60.8,60.7,60.7,98,98,98,29.98,28.62,2,2,2,0.00
2013-10-5,64.6,56.0,46.6,62.8,55.2,45.8,98,97,89,29.98,28.50,8,2,8,3.81
2013-10-6,63.5,53.1,43.5,49.2,44.9,41.7,96,75,53,29.91,28.52,8,2,8,0.01
2013-10-7,72.5,55.0,40.6,50.3,45.2,38.2,97,73,43,30.08,28.58,7,1,7,0.00
2013-10-8,76.1,58.2,43.9,53.2,47.4,41.7,97,71,38,30.09,28.62,11,2,11,0.00
2013-10-9,79.7,59.5,43.7,54.7,48.2,41.0,95,69,36,30.06,28.60,8,1,8,0.00
2013-10-10,81.0,61.9,46.9,61.3,52.8,44.9,97,75,43,30.04,28.50,8,2,8,0.00
2013-10-11,79.0,65.8,52.7,65.8,59.7,19.8,97,81,65,29.87,28.44,17,4,17,0.00
2013-10-12,69.1,64.8,59.4,66.2,61.4,55.2,98,89,81,30.01,28.47,9,3,9,0.55
2013-10-13,74.1,62.2,55.2,58.2,52.9,48.8,87,72,54,30.25,28.73,8,2,8,0.00
2013-10-14,67.6,60.8,55.4,61.3,54.7,47.2,97,81,67,30.19,28.54,13,3,13,0.59
2013-10-15,64.4,58.9,51.4,63.9,56.9,48.6,99,93,83,29.97,28.47,8,3,8,0.11
2013-10-16,63.3,51.7,41.2,48.3,44.4,39.0,96,77,55,28.69,28.56,8,2,8,0.00
2013-10-17,65.8,51.0,40.3,48.7,43.8,38.5,99,78,50,29.99,28.54,8,1,8,0.01
2013-10-18,64.9,48.4,37.8,53.6,44.2,36.5,98,86,62,29.99,28.53,7,2,7,0.35
2013-10-19,43.3,41.3,36.3,42.4,38.2,35.0,97,89,84,30.06,28.62,8,3,8,0.06
2013-10-20,42.8,42.8,42.8,38.3,38.3,38.3,84,84,84,30.06,28.70,3,3,3,0.00
2013-10-21,42.8,42.8,42.8,38.3,38.3,38.3,84,84,84,30.06,28.70,3,3,3,0.00
2013-10-22,42.8,42.8,42.8,38.3,38.3,38.3,84,84,84,30.06,28.70,3,3,3,0.00
2013-10-23,42.8,42.8,42.8,38.3,38.3,38.3,84,84,84,30.06,28.70,3,3,3,0.00
2013-10-24,50.0,42.1,33.6,38.3,36.0,27.5,84,79,48,28.95,28.70,6,2,6,0.00
2013-10-25,60.8,44.0,29.8,33.6,29.7,-30.3,88,61,29,30.41,28.77,8,2,8,0.00
2013-10-26,65.5,54.2,43.7,54.3,45.0,32.7,87,71,65,28.77,28.66,9,3,9,0.00
2013-10-27,65.8,51.1,39.9,51.4,42.0,32.4,97,74,30,30.04,28.55,5,0,5,0.00
2013-10-28,70.3,58.6,45.1,57.2,52.6,44.0,99,82,58,30.09,28.59,9,3,9,0.00
2013-10-29,70.3,64.3,56.7,64.5,60.6,22.5,95,88,82,30.06,28.55,16,6,16,0.26
2013-10-30,67.5,64.4,60.8,64.5,62.9,60.5,99,95,88,29.79,28.38,11,4,11,5.20
2013-10-31,73.2,60.4,48.9,65.5,57.0,22.6,99,90,44,29.73,28.08,17,5,17,0.85
2013-11-1,69.1,53.9,42.3,50.1,43.3,38.5,96,71,36,29.93,28.33,8,2,8,0.01
2013-11-2,56.7,45.7,35.4,41.4,37.1,31.8,89,73,51,30.14,28.56,10,3,10,0.00
2013-11-3,63.5,47.0,30.6,43.6,37.1,28.0,98,71,40,30.14,28.58,16,4,16,0.00
2013-11-4,59.2,54.3,50.2,50.9,45.7,40.5,90,73,65,30.08,28.58,13,6,13,0.00
2013-11-5,62.2,57.7,53.6,60.8,56.5,50.9,98,96,91,30.07,28.51,10,4,10,1.61
2013-11-6,61.9,44.5,31.8,60.9,42.6,30.4,99,93,82,30.27,28.45,13,4,13,1.02
2013-11-7,61.9,42.7,27.1,44.7,34.2,25.6,99,76,37,30.36,28.89,8,1,8,0.01
2013-11-8,64.8,49.3,32.7,41.4,36.6,6.4,99,66,31,30.27,28.64,16,6,16,0.00
2013-11-9,65.5,53.3,41.4,46.4,41.4,-6.8,85,65,46,30.20,28.66,10,2,10,0.00
2013-11-10,69.3,54.6,43.3,44.6,41.8,38.7,95,65,37,30.29,28.82,8,1,8,0.00
2013-11-11,67.5,54.0,41.2,52.8,45.6,37.0,85,74,57,30.33,28.73,16,4,16,0.00
2013-11-12,41.2,32.2,21.0,37.0,20.6,14.4,85,64,39,30.64,28.95,15,7,15,0.00
2013-11-13,50.9,33.5,17.6,21.7,18.1,12.8,85,57,28,30.60,28.86,10,4,10,0.00
2013-11-14,54.0,40.9,23.7,34.1,22.5,16.3,76,51,26,30.23,28.59,15,5,15,0.00
2013-11-15,60.1,49.7,42.4,47.8,41.9,33.2,87,75,63,29.95,28.42,13,5,13,0.18
2013-11-16,71.2,62.8,50.9,62.6,56.7,47.2,88,81,68,29.78,28.19,22,11,22,0.00
2013-11-17,74.1,65.6,50.0,63.7,44.1,21.2,81,50,24,30.00,28.13,24,8,24,0.00
2013-11-18,63.0,48.8,36.3,39.3,28.1,20.0,77,48,20,30.18,28.63,11,2,11,0.00
2013-11-19,61.5,49.8,38.7,32.5,24.8,14.7,65,40,23,30.17,28.61,13,4,13,0.00
2013-11-20,61.5,53.0,42.8,40.7,26.0,9.5,55,36,20,29.97,28.47,14,5,14,0.00
2013-11-21,57.0,50.2,42.1,50.8,47.8,39.5,99,92,52,30.18,28.54,12,4,12,1.48
2013-11-22,42.1,32.3,30.6,41.8,31.5,29.4,99,97,94,30.41,28.82,12,7,12,0.01
2013-11-23,38.1,31.1,22.3,29.6,22.9,12.1,95,73,48,30.56,29.03,13,7,13,0.00
2013-11-24,32.4,25.6,17.6,18.0,14.0,11.0,76,62,48,29.18,28.87,9,4,9,0.00
2013-11-25,37.8,33.2,29.8,28.9,24.0,14.9,84,69,48,30.23,28.70,10,3,10,0.00
2013-11-26,45.7,34.3,24.8,32.4,25.8,15.6,83,72,51,30.23,28.66,17,6,17,0.00
2013-11-27,38.1,26.2,17.2,15.7,11.9,9.3,75,56,32,30.20,28.83,12,4,12,0.00
2013-11-28,52.9,36.9,24.1,28.1,21.0,12.5,77,54,37,30.36,28.81,12,4,12,0.00
2013-11-29,55.8,38.7,23.7,38.4,24.3,19.1,92,60,29,30.24,28.85,9,2,9,0.00
2013-11-30,57.6,45.9,33.6,43.1,36.1,24.1,90,69,56,30.24,28.67,16,5,16,0.00
2013-12-1,55.4,48.3,40.3,51.9,46.4,40.0,99,93,86,29.90,28.44,7,1,7,0.00
2013-12-2,64.8,48.9,39.2,53.5,44.3,38.9,99,86,56,29.79,28.23,8,1,8,0.00
2013-12-3,70.2,51.3,36.0,54.1,45.1,35.7,99,82,40,29.59,28.10,10,3,10,0.00
2013-12-4,61.5,45.9,31.1,51.6,42.0,29.0,99,87,59,28.51,28.11,14,4,14,0.13
2013-12-5,31.1,23.6,19.0,29.0,19.5,16.3,92,84,69,30.16,28.51,14,7,14,0.00
2013-12-6,19.4,17.3,12.6,16.2,13.0,6.0,89,83,71,30.43,28.75,12,7,12,0.00
2013-12-7,25.5,15.0,2.5,12.7,5.9,-1.7,86,68,47,30.50,28.82,10,4,10,0.00
2013-12-8,29.1,25.2,20.5,26.2,21.7,11.9,93,87,67,30.17,28.53,8,3,8,0.00
2013-12-9,29.5,22.9,19.4,23.4,17.7,14.0,89,81,68,30.22,28.71,10,5,10,0.00
2013-12-10,33.4,21.8,12.2,18.7,14.9,9.6,90,76,53,30.32,28.80,9,3,9,0.15
2013-12-11,34.3,22.9,13.5,24.9,17.1,10.3,94,79,61,30.50,28.80,9,3,9,0.01
2013-12-12,41.0,26.6,12.6,24.2,16.8,8.8,86,68,46,30.49,28.80,13,3,13,0.28
2013-12-13,36.9,33.5,26.1,35.7,29.5,-60.2,99,85,68,30.16,28.39,15,3,15,1.28
2013-12-14,35.2,31.0,22.3,34.9,30.0,21.3,99,96,91,30.14,28.38,14,5,14,0.73
2013-12-15,48.9,33.6,19.2,35.7,27.9,17.8,98,81,58,30.15,28.66,10,4,10,0.01
2013-12-16,62.2,47.2,36.7,37.3,33.1,30.0,78,60,36,30.04,28.61,12,5,12,0.00
2013-12-17,58.6,43.8,31.6,38.3,31.0,25.4,86,63,35,30.20,28.68,13,3,13,0.00
2013-12-18,62.8,46.0,27.5,39.1,32.2,23.1,85,61,36,30.19,28.51,19,6,19,0.00
2013-12-19,61.2,55.6,51.3,54.6,47.5,38.6,81,74,59,29.87,28.28,17,10,17,0.00
2013-12-20,62.6,44.6,31.5,56.7,41.3,30.7,98,89,79,29.79,28.28,16,6,16,0.16
2013-12-21,39.2,35.2,31.3,38.9,34.9,30.8,99,99,98,29.65,28.04,11,3,11,2.14
2013-12-22,33.6,28.8,24.3,33.3,27.2,22.3,99,94,91,30.24,28.26,10,5,10,0.00
2013-12-23,29.7,22.7,14.5,23.5,19.8,11.9,92,88,74,30.47,28.88,9,4,9,0.00
2013-12-24,43.2,26.8,14.2,29.2,20.7,11.4,92,79,56,30.45,28.78,13,4,13,0.00
2013-12-25,44.4,31.8,22.6,34.9,27.2,20.4,95,83,69,30.29,28.80,7,1,7,0.00
2013-12-26,52.0,34.7,19.4,34.8,25.8,18.2,99,74,39,30.29,28.83,12,3,12,0.01
2013-12-27,57.6,39.9,25.7,35.8,28.6,22.4,90,67,36,30.33,28.85,10,3,10,0.00
2013-12-28,56.5,40.4,24.6,36.8,28.4,20.7,87,65,35,30.21,28.49,13,3,13,0.00
2013-12-29,42.1,30.0,19.6,35.9,24.2,13.6,85,79,73,30.06,28.49,13,6,13,0.00
2013-12-30,38.7,25.1,13.3,23.3,17.1,-14.5,83,72,49,30.25,28.74,10,3,10,0.00
2013-12-31,55.4,35.6,18.7,30.9,22.4,15.2,95,63,31,30.28,28.70,16,4,16,0.00
2014-1-1,56.7,40.0,22.1,35.0,26.4,17.5,84,60,35,30.06,28.43,16,6,16,0.00
2014-1-2,25.7,16.8,9.3,17.5,9.6,0.1,84,73,58,30.36,28.68,16,5,16,0.00